Wetterdaten: Montag, 11.05.2015
Datum Zeit Temp. A. Feuchte A. Luftdruck Regen Wind Richtung Richtung Sonnenschein ET UV Solar Taupunkt Windchill Windben Empfang
11.05.2015 00:00 10,7 C 79 % 1028,1 hPa 0,0 l/m 0,0 km/h (0 Bft) S 179 0 min 0,000 mm 0,0 UV-I 0 W/m 7,2 C 10,7 C 0,0 km/h (0 Bft) 0,00 %
11.05.2015 00:15 10,7 C 79 % 1028,0 hPa 0,0 l/m 0,0 km/h (0 Bft) S 178 0 min 0,000 mm 0,0 UV-I 0 W/m 7,2 C 10,7 C 0,0 km/h (0 Bft) 0,00 %
11.05.2015 00:30 10,4 C 80 % 1028,1 hPa 0,0 l/m 0,0 km/h (0 Bft) S 175 0 min 0,000 mm 0,0 UV-I 0 W/m 7,1 C 10,4 C 0,0 km/h (0 Bft) 0,00 %
11.05.2015 00:45 10,2 C 80 % 1028,1 hPa 0,0 l/m 0,0 km/h (0 Bft) S 177 0 min 0,000 mm 0,0 UV-I 0 W/m 6,9 C 10,2 C 0,0 km/h (0 Bft) 0,00 %
11.05.2015 01:00 10,1 C 81 % 1028,2 hPa 0,0 l/m 0,0 km/h (0 Bft) S 183 0 min 0,000 mm 0,0 UV-I 0 W/m 7,0 C 10,1 C 0,0 km/h (0 Bft) 0,00 %
11.05.2015 01:15 9,8 C 82 % 1028,3 hPa 0,0 l/m 0,0 km/h (0 Bft) S 186 0 min 0,000 mm 0,0 UV-I 0 W/m 6,9 C 9,8 C 0,0 km/h (0 Bft) 0,00 %
11.05.2015 01:30 9,6 C 83 % 1028,1 hPa 0,0 l/m 0,0 km/h (0 Bft) S 182 0 min 0,000 mm 0,0 UV-I 0 W/m 6,9 C 9,6 C 0,0 km/h (0 Bft) 0,00 %
11.05.2015 01:45 9,4 C 85 % 1028,3 hPa 0,0 l/m 0,0 km/h (0 Bft) S 183 0 min 0,000 mm 0,0 UV-I 0 W/m 7,0 C 9,4 C 0,0 km/h (0 Bft) 0,00 %
11.05.2015 02:00 9,3 C 86 % 1028,1 hPa 0,0 l/m 0,0 km/h (0 Bft) S 182 0 min 0,000 mm 0,0 UV-I 0 W/m 7,1 C 9,3 C 0,0 km/h (0 Bft) 0,00 %
11.05.2015 02:15 9,2 C 86 % 1028,2 hPa 0,0 l/m 0,0 km/h (0 Bft) S 182 0 min 0,000 mm 0,0 UV-I 0 W/m 7,0 C 9,2 C 0,0 km/h (0 Bft) 0,00 %
11.05.2015 02:30 8,8 C 90 % 1028,5 hPa 0,0 l/m 0,0 km/h (0 Bft) S 189 0 min 0,000 mm 0,0 UV-I 0 W/m 7,3 C 8,8 C 0,0 km/h (0 Bft) 0,00 %
11.05.2015 02:45 8,2 C 91 % 1028,6 hPa 0,0 l/m 0,0 km/h (0 Bft) S 186 0 min 0,000 mm 0,0 UV-I 0 W/m 6,8 C 8,2 C 0,0 km/h (0 Bft) 0,00 %
11.05.2015 03:00 8,0 C 92 % 1028,6 hPa 0,0 l/m 0,0 km/h (0 Bft) S 177 0 min 0,000 mm 0,0 UV-I 0 W/m 6,8 C 8,0 C 0,0 km/h (0 Bft) 0,00 %
11.05.2015 03:15 8,0 C 92 % 1028,8 hPa 0,0 l/m 0,0 km/h (0 Bft) S-SW 202 0 min 0,000 mm 0,0 UV-I 0 W/m 6,8 C 8,0 C 0,0 km/h (0 Bft) 0,00 %
11.05.2015 03:30 7,8 C 92 % 1028,8 hPa 0,0 l/m 0,0 km/h (0 Bft) S-SW 195 0 min 0,000 mm 0,0 UV-I 0 W/m 6,6 C 7,8 C 0,0 km/h (0 Bft) 0,00 %
11.05.2015 03:45 7,4 C 93 % 1028,9 hPa 0,0 l/m 0,0 km/h (0 Bft) S 186 0 min 0,000 mm 0,0 UV-I 0 W/m 6,3 C 7,4 C 0,0 km/h (0 Bft) 0,00 %
11.05.2015 04:00 7,3 C 94 % 1029,0 hPa 0,0 l/m 0,0 km/h (0 Bft) S 178 0 min 0,000 mm 0,0 UV-I 0 W/m 6,4 C 7,3 C 0,0 km/h (0 Bft) 0,00 %
11.05.2015 04:15 7,1 C 95 % 1029,1 hPa 0,0 l/m 0,0 km/h (0 Bft) S-SW 203 0 min 0,000 mm 0,0 UV-I 0 W/m 6,4 C 7,1 C 0,0 km/h (0 Bft) 0,00 %
11.05.2015 04:30 6,8 C 95 % 1029,3 hPa 0,0 l/m 0,0 km/h (0 Bft) S 183 0 min 0,000 mm 0,0 UV-I 0 W/m 6,1 C 6,8 C 0,0 km/h (0 Bft) 0,00 %
11.05.2015 04:45 6,8 C 96 % 1029,3 hPa 0,0 l/m 0,0 km/h (0 Bft) S 174 0 min 0,000 mm 0,0 UV-I 0 W/m 6,2 C 6,8 C 0,0 km/h (0 Bft) 0,00 %
11.05.2015 05:00 6,7 C 96 % 1029,5 hPa 0,0 l/m 0,0 km/h (0 Bft) S-SW 196 0 min 0,000 mm 0,0 UV-I 0 W/m 6,1 C 6,7 C 0,0 km/h (0 Bft) 0,00 %
11.05.2015 05:15 6,5 C 97 % 1029,4 hPa 0,0 l/m 0,0 km/h (0 Bft) S 189 0 min 0,000 mm 0,0 UV-I 0 W/m 6,1 C 6,5 C 0,0 km/h (0 Bft) 0,00 %
11.05.2015 05:30 6,5 C 97 % 1029,7 hPa 0,0 l/m 0,0 km/h (0 Bft) S 189 0 min 0,000 mm 0,0 UV-I 1 W/m 6,1 C 6,5 C 0,0 km/h (0 Bft) 0,00 %
11.05.2015 05:45 6,6 C 97 % 1029,7 hPa 0,0 l/m 0,0 km/h (0 Bft) S-SW 192 15 min 0,000 mm 0,0 UV-I 20 W/m 6,2 C 6,6 C 0,0 km/h (0 Bft) 0,00 %
11.05.2015 06:00 7,1 C 97 % 1029,6 hPa 0,0 l/m 0,0 km/h (0 Bft) S 174 15 min 0,000 mm 0,0 UV-I 81 W/m 6,7 C 7,1 C 0,0 km/h (0 Bft) 0,00 %
11.05.2015 06:15 9,0 C 94 % 1029,4 hPa 0,0 l/m 0,0 km/h (0 Bft) S 173 15 min 0,000 mm 0,0 UV-I 149 W/m 8,1 C 9,0 C 0,0 km/h (0 Bft) 0,00 %
11.05.2015 06:30 10,1 C 82 % 1029,2 hPa 0,0 l/m 0,0 km/h (0 Bft) S 172 15 min 0,000 mm 0,0 UV-I 186 W/m 7,2 C 10,1 C 0,0 km/h (0 Bft) 0,00 %
11.05.2015 06:45 10,3 C 78 % 1029,2 hPa 0,0 l/m 0,4 km/h (0 Bft) O-SO 109 15 min 0,000 mm 1,0 UV-I 257 W/m 6,6 C 10,3 C 4,0 km/h (1 Bft) 0,00 %
11.05.2015 07:00 10,2 C 78 % 1029,5 hPa 0,0 l/m 4,0 km/h (1 Bft) O-SO 121 15 min 0,000 mm 1,0 UV-I 277 W/m 6,5 C 10,2 C 7,9 km/h (2 Bft) 0,00 %
11.05.2015 07:15 10,0 C 80 % 1029,5 hPa 0,0 l/m 0,4 km/h (0 Bft) SO 131 15 min 0,000 mm 1,0 UV-I 287 W/m 6,7 C 10,0 C 4,0 km/h (1 Bft) 0,00 %
11.05.2015 07:30 10,4 C 79 % 1029,2 hPa 0,0 l/m 5,8 km/h (2 Bft) O 98 15 min 0,000 mm 1,0 UV-I 341 W/m 6,9 C 10,4 C 7,9 km/h (2 Bft) 0,00 %
11.05.2015 07:45 11,2 C 73 % 1029,3 hPa 0,0 l/m 0,0 km/h (0 Bft) O 91 15 min 0,000 mm 1,0 UV-I 354 W/m 6,5 C 11,2 C 0,0 km/h (0 Bft) 0,00 %
11.05.2015 08:00 11,6 C 73 % 1028,9 hPa 0,0 l/m 2,9 km/h (1 Bft) O-SO 111 15 min 0,000 mm 2,0 UV-I 636 W/m 6,9 C 11,6 C 4,0 km/h (1 Bft) 0,00 %
11.05.2015 08:15 12,1 C 72 % 1028,9 hPa 0,0 l/m 1,4 km/h (1 Bft) O-NO 73 15 min 0,000 mm 2,0 UV-I 370 W/m 7,2 C 12,1 C 4,0 km/h (1 Bft) 0,00 %
11.05.2015 08:30 12,5 C 66 % 1028,9 hPa 0,0 l/m 6,5 km/h (2 Bft) O 89 15 min 0,000 mm 2,0 UV-I 374 W/m 6,3 C 12,5 C 7,9 km/h (2 Bft) 0,00 %
11.05.2015 08:45 13,2 C 63 % 1028,8 hPa 0,0 l/m 6,8 km/h (2 Bft) O-SO 106 15 min 0,000 mm 2,0 UV-I 393 W/m 6,3 C 13,0 C 11,9 km/h (2 Bft) 0,00 %
11.05.2015 09:00 13,5 C 62 % 1028,6 hPa 0,0 l/m 10,8 km/h (2 Bft) O 97 15 min 0,000 mm 2,0 UV-I 407 W/m 6,4 C 11,1 C 15,8 km/h (3 Bft) 0,00 %
11.05.2015 09:15 13,6 C 62 % 1028,6 hPa 0,0 l/m 1,8 km/h (1 Bft) SO 124 15 min 0,000 mm 3,0 UV-I 418 W/m 6,5 C 13,6 C 4,0 km/h (1 Bft) 0,00 %
11.05.2015 09:30 14,0 C 61 % 1028,5 hPa 0,0 l/m 0,7 km/h (0 Bft) NO 39 15 min 0,000 mm 3,0 UV-I 448 W/m 6,6 C 14,0 C 4,0 km/h (1 Bft) 0,00 %
11.05.2015 09:45 14,5 C 60 % 1028,3 hPa 0,0 l/m 4,7 km/h (1 Bft) O-NO 74 15 min 0,000 mm 3,0 UV-I 473 W/m 6,8 C 14,5 C 7,9 km/h (2 Bft) 0,00 %
11.05.2015 10:00 14,8 C 56 % 1028,2 hPa 0,0 l/m 7,9 km/h (2 Bft) O-SO 103 15 min 0,000 mm 3,0 UV-I 498 W/m 6,1 C 13,9 C 11,9 km/h (2 Bft) 0,00 %
11.05.2015 10:15 15,2 C 55 % 1028,4 hPa 0,0 l/m 8,3 km/h (2 Bft) O-SO 121 15 min 0,000 mm 4,0 UV-I 526 W/m 6,2 C 14,2 C 11,9 km/h (2 Bft) 0,00 %
11.05.2015 10:30 15,6 C 54 % 1027,9 hPa 0,0 l/m 7,2 km/h (2 Bft) O-SO 107 15 min 0,000 mm 4,0 UV-I 564 W/m 6,3 C 15,2 C 7,9 km/h (2 Bft) 0,00 %
11.05.2015 10:45 15,8 C 56 % 1028,0 hPa 0,0 l/m 2,2 km/h (1 Bft) SO 138 15 min 0,000 mm 4,0 UV-I 588 W/m 7,0 C 15,8 C 4,0 km/h (1 Bft) 0,00 %
11.05.2015 11:00 16,1 C 52 % 1027,9 hPa 0,0 l/m 0,0 km/h (0 Bft) S-SW 211 15 min 0,000 mm 4,0 UV-I 627 W/m 6,2 C 16,1 C 0,0 km/h (0 Bft) 0,00 %
11.05.2015 11:15 16,6 C 52 % 1027,6 hPa 0,0 l/m 6,5 km/h (2 Bft) O 83 15 min 0,000 mm 5,0 UV-I 578 W/m 6,7 C 16,6 C 7,9 km/h (2 Bft) 0,00 %
11.05.2015 11:30 16,9 C 50 % 1027,5 hPa 0,0 l/m 6,5 km/h (2 Bft) O 99 15 min 0,000 mm 5,0 UV-I 686 W/m 6,4 C 16,9 C 11,9 km/h (2 Bft) 0,00 %
11.05.2015 11:45 16,9 C 48 % 1027,4 hPa 0,0 l/m 4,7 km/h (1 Bft) O 99 15 min 0,000 mm 6,0 UV-I 704 W/m 5,8 C 16,9 C 7,9 km/h (2 Bft) 0,00 %
11.05.2015 12:00 17,5 C 46 % 1027,5 hPa 0,0 l/m 2,2 km/h (1 Bft) NO 52 15 min 0,000 mm 6,0 UV-I 725 W/m 5,8 C 17,5 C 4,0 km/h (1 Bft) 0,00 %
11.05.2015 12:15 17,6 C 47 % 1027,2 hPa 0,0 l/m 6,8 km/h (2 Bft) O-NO 65 15 min 0,000 mm 6,0 UV-I 696 W/m 6,2 C 17,4 C 11,9 km/h (2 Bft) 0,00 %
11.05.2015 12:30 18,0 C 45 % 1026,9 hPa 0,0 l/m 4,7 km/h (1 Bft) O-SO 114 15 min 0,000 mm 6,0 UV-I 731 W/m 5,9 C 18,0 C 7,9 km/h (2 Bft) 0,00 %
11.05.2015 12:45 18,7 C 46 % 1026,6 hPa 0,0 l/m 0,7 km/h (0 Bft) SW 214 15 min 0,000 mm 6,0 UV-I 759 W/m 6,8 C 18,7 C 4,0 km/h (1 Bft) 0,00 %
11.05.2015 13:00 18,6 C 44 % 1026,5 hPa 0,0 l/m 1,8 km/h (1 Bft) S-SO 156 15 min 0,000 mm 6,0 UV-I 775 W/m 6,1 C 18,6 C 4,0 km/h (1 Bft) 0,00 %
11.05.2015 13:15 19,2 C 43 % 1026,5 hPa 0,0 l/m 5,4 km/h (1 Bft) SO 146 15 min 0,000 mm 6,0 UV-I 786 W/m 6,3 C 19,2 C 7,9 km/h (2 Bft) 0,00 %
11.05.2015 13:30 19,3 C 45 % 1026,2 hPa 0,0 l/m 2,9 km/h (1 Bft) W 267 15 min 0,000 mm 6,0 UV-I 809 W/m 7,1 C 19,3 C 7,9 km/h (2 Bft) 0,00 %
11.05.2015 13:45 19,4 C 40 % 1025,9 hPa 0,0 l/m 0,7 km/h (0 Bft) S-SO 166 15 min 0,000 mm 6,0 UV-I 826 W/m 5,5 C 19,4 C 4,0 km/h (1 Bft) 0,00 %
11.05.2015 14:00 20,2 C 39 % 1025,5 hPa 0,0 l/m 3,2 km/h (1 Bft) S-SO 150 15 min 0,000 mm 5,0 UV-I 835 W/m 5,8 C 20,2 C 7,9 km/h (2 Bft) 0,00 %
11.05.2015 14:15 20,5 C 37 % 1025,3 hPa 0,0 l/m 3,2 km/h (1 Bft) O-SO 114 15 min 0,000 mm 5,0 UV-I 855 W/m 5,3 C 20,5 C 7,9 km/h (2 Bft) 0,00 %
11.05.2015 14:30 20,3 C 36 % 1025,1 hPa 0,0 l/m 5,8 km/h (2 Bft) O-SO 104 15 min 0,000 mm 5,0 UV-I 847 W/m 4,7 C 20,3 C 7,9 km/h (2 Bft) 0,00 %
11.05.2015 14:45 20,4 C 36 % 1024,9 hPa 0,0 l/m 4,3 km/h (1 Bft) O 100 15 min 0,000 mm 5,0 UV-I 847 W/m 4,8 C 20,4 C 7,9 km/h (2 Bft) 0,00 %
11.05.2015 15:00 20,6 C 35 % 1024,8 hPa 0,0 l/m 4,3 km/h (1 Bft) O 86 15 min 0,000 mm 5,0 UV-I 850 W/m 4,6 C 20,6 C 7,9 km/h (2 Bft) 0,00 %
11.05.2015 15:15 20,8 C 30 % 1024,5 hPa 0,0 l/m 0,0 km/h (0 Bft) S-SO 159 15 min 0,000 mm 5,0 UV-I 801 W/m 2,6 C 20,8 C 0,0 km/h (0 Bft) 0,00 %
11.05.2015 15:30 21,8 C 28 % 1024,0 hPa 0,0 l/m 6,8 km/h (2 Bft) SO 124 15 min 0,000 mm 2,0 UV-I 835 W/m 2,5 C 21,7 C 7,9 km/h (2 Bft) 0,00 %
11.05.2015 15:45 21,6 C 23 % 1023,9 hPa 0,0 l/m 0,4 km/h (0 Bft) SO 141 15 min 0,000 mm 2,0 UV-I 683 W/m -0,4 C 21,6 C 4,0 km/h (1 Bft) 0,00 %
11.05.2015 16:00 21,8 C 27 % 1023,6 hPa 0,0 l/m 9,0 km/h (2 Bft) O 87 15 min 0,000 mm 2,0 UV-I 635 W/m 2,0 C 20,9 C 11,9 km/h (2 Bft) 0,00 %
11.05.2015 16:15 21,3 C 29 % 1023,9 hPa 0,0 l/m 2,2 km/h (1 Bft) O-NO 66 15 min 0,000 mm 2,0 UV-I 602 W/m 2,5 C 21,3 C 4,0 km/h (1 Bft) 0,00 %
11.05.2015 16:30 21,1 C 23 % 1023,7 hPa 0,0 l/m 9,7 km/h (2 Bft) O-SO 114 15 min 0,000 mm 2,0 UV-I 593 W/m -0,8 C 19,9 C 11,9 km/h (2 Bft) 0,00 %
11.05.2015 16:45 21,0 C 23 % 1023,5 hPa 0,0 l/m 10,4 km/h (2 Bft) O 83 15 min 0,000 mm 2,0 UV-I 605 W/m -0,9 C 19,6 C 11,9 km/h (2 Bft) 0,00 %
11.05.2015 17:00 21,1 C 29 % 1023,4 hPa 0,0 l/m 9,0 km/h (2 Bft) O-SO 105 15 min 0,000 mm 2,0 UV-I 545 W/m 2,4 C 20,2 C 11,9 km/h (2 Bft) 0,00 %
11.05.2015 17:15 21,0 C 24 % 1023,3 hPa 0,0 l/m 0,7 km/h (0 Bft) O-SO 110 15 min 0,000 mm 1,0 UV-I 478 W/m -0,3 C 21,0 C 4,0 km/h (1 Bft) 0,00 %
11.05.2015 17:30 20,8 C 30 % 1023,2 hPa 0,0 l/m 1,8 km/h (1 Bft) O 94 15 min 0,000 mm 1,0 UV-I 726 W/m 2,6 C 20,8 C 4,0 km/h (1 Bft) 0,00 %
11.05.2015 17:45 20,8 C 29 % 1023,0 hPa 0,0 l/m 0,4 km/h (0 Bft) O-NO 63 15 min 0,000 mm 1,0 UV-I 618 W/m 2,1 C 20,8 C 4,0 km/h (1 Bft) 0,00 %
11.05.2015 18:00 20,4 C 30 % 1023,0 hPa 0,0 l/m 0,0 km/h (0 Bft) SO 131 15 min 0,000 mm 1,0 UV-I 618 W/m 2,2 C 20,4 C 0,0 km/h (0 Bft) 0,00 %
11.05.2015 18:15 20,3 C 31 % 1023,0 hPa 0,0 l/m 0,0 km/h (0 Bft) S-SW 196 15 min 0,000 mm 1,0 UV-I 326 W/m 2,6 C 20,3 C 0,0 km/h (0 Bft) 0,00 %
11.05.2015 18:30 20,3 C 29 % 1023,0 hPa 0,0 l/m 3,2 km/h (1 Bft) SO 135 15 min 0,000 mm 1,0 UV-I 480 W/m 1,7 C 20,3 C 4,0 km/h (1 Bft) 0,00 %
11.05.2015 18:45 20,3 C 31 % 1023,0 hPa 0,0 l/m 0,4 km/h (0 Bft) S 176 15 min 0,000 mm 1,0 UV-I 460 W/m 2,6 C 20,3 C 4,0 km/h (1 Bft) 0,00 %
11.05.2015 19:00 20,3 C 31 % 1022,8 hPa 0,0 l/m 0,0 km/h (0 Bft) SO 128 15 min 0,000 mm 1,0 UV-I 411 W/m 2,6 C 20,3 C 0,0 km/h (0 Bft) 0,00 %
11.05.2015 19:15 19,6 C 39 % 1022,7 hPa 0,0 l/m 0,4 km/h (0 Bft) S 176 15 min 0,000 mm 0,0 UV-I 353 W/m 5,3 C 19,6 C 4,0 km/h (1 Bft) 0,00 %
11.05.2015 19:30 18,7 C 43 % 1022,8 hPa 0,0 l/m 0,0 km/h (0 Bft) S 182 15 min 0,000 mm 0,0 UV-I 229 W/m 5,9 C 18,7 C 0,0 km/h (0 Bft) 0,00 %
11.05.2015 19:45 17,9 C 43 % 1023,1 hPa 0,0 l/m 5,8 km/h (2 Bft) O-SO 103 15 min 0,000 mm 0,0 UV-I 123 W/m 5,1 C 17,9 C 7,9 km/h (2 Bft) 0,00 %
11.05.2015 20:00 17,1 C 44 % 1023,1 hPa 0,0 l/m 4,0 km/h (1 Bft) N 352 15 min 0,000 mm 0,0 UV-I 50 W/m 4,8 C 17,1 C 7,9 km/h (2 Bft) 0,00 %
11.05.2015 20:15 16,7 C 46 % 1023,1 hPa 0,0 l/m 8,3 km/h (2 Bft) O-SO 110 15 min 0,000 mm 0,0 UV-I 21 W/m 5,0 C 15,7 C 11,9 km/h (2 Bft) 0,00 %
11.05.2015 20:30 16,1 C 50 % 1023,4 hPa 0,0 l/m 0,4 km/h (0 Bft) O-SO 111 0 min 0,000 mm 0,0 UV-I 2 W/m 5,7 C 16,1 C 4,0 km/h (1 Bft) 0,00 %
11.05.2015 20:45 15,6 C 51 % 1023,4 hPa 0,0 l/m 6,8 km/h (2 Bft) SO 128 0 min 0,000 mm 0,0 UV-I 0 W/m 5,5 C 15,4 C 11,9 km/h (2 Bft) 0,00 %
11.05.2015 21:00 15,3 C 52 % 1023,7 hPa 0,0 l/m 0,7 km/h (0 Bft) S 185 0 min 0,000 mm 0,0 UV-I 0 W/m 5,5 C 15,3 C 4,0 km/h (1 Bft) 0,00 %
11.05.2015 21:15 14,9 C 53 % 1023,7 hPa 0,0 l/m 9,0 km/h (2 Bft) O-NO 63 0 min 0,000 mm 0,0 UV-I 0 W/m 5,4 C 13,5 C 11,9 km/h (2 Bft) 0,00 %
11.05.2015 21:30 14,7 C 52 % 1023,8 hPa 0,0 l/m 5,8 km/h (2 Bft) O-SO 102 0 min 0,000 mm 0,0 UV-I 0 W/m 5,0 C 14,7 C 7,9 km/h (2 Bft) 0,00 %
11.05.2015 21:45 14,6 C 51 % 1023,8 hPa 0,0 l/m 7,2 km/h (2 Bft) O-SO 112 0 min 0,000 mm 0,0 UV-I 0 W/m 4,6 C 14,1 C 7,9 km/h (2 Bft) 0,00 %
11.05.2015 22:00 14,2 C 53 % 1023,9 hPa 0,0 l/m 0,7 km/h (0 Bft) S-SO 153 0 min 0,000 mm 0,0 UV-I 0 W/m 4,8 C 14,2 C 4,0 km/h (1 Bft) 0,00 %
11.05.2015 22:15 13,8 C 54 % 1024,1 hPa 0,0 l/m 3,2 km/h (1 Bft) SO 128 0 min 0,000 mm 0,0 UV-I 0 W/m 4,7 C 13,8 C 7,9 km/h (2 Bft) 0,00 %
11.05.2015 22:30 13,3 C 57 % 1024,4 hPa 0,0 l/m 0,7 km/h (0 Bft) O-SO 122 0 min 0,000 mm 0,0 UV-I 0 W/m 5,0 C 13,3 C 4,0 km/h (1 Bft) 0,00 %
11.05.2015 22:45 12,8 C 59 % 1024,4 hPa 0,0 l/m 0,0 km/h (0 Bft) S-SO 161 0 min 0,000 mm 0,0 UV-I 0 W/m 5,0 C 12,8 C 0,0 km/h (0 Bft) 0,00 %
11.05.2015 23:00 12,2 C 60 % 1024,4 hPa 0,0 l/m 3,2 km/h (1 Bft) O-SO 112 0 min 0,000 mm 0,0 UV-I 0 W/m 4,7 C 12,2 C 7,9 km/h (2 Bft) 0,00 %
11.05.2015 23:15 12,1 C 59 % 1024,3 hPa 0,0 l/m 4,3 km/h (1 Bft) O-SO 105 0 min 0,000 mm 0,0 UV-I 0 W/m 4,3 C 12,1 C 7,9 km/h (2 Bft) 0,00 %
11.05.2015 23:30 12,2 C 59 % 1024,6 hPa 0,0 l/m 1,8 km/h (1 Bft) O 99 0 min 0,000 mm 0,0 UV-I 0 W/m 4,4 C 12,2 C 4,0 km/h (1 Bft) 0,00 %
_ Min-Zeit 05:15 15:45 19:15 - 00:00 - - - - - - 16:45 05:15 00:00 00:00
Minimum _ 6,5 C 23 % 1022,7 hPa - 0,0 km/h (0 Bft) - - - - - - -0,9 C 6,5 C 0,0 km/h (0 Bft) 0,00 %
_ Max-Zeit 15:30 05:15 05:30 00:00 09:00 - - 05:45 00:00 11:45 14:15 06:15 15:30 09:00 00:00
Maximum _ 21,8 C 97 % 1029,7 hPa 0,0 l/m 10,8 km/h
O (2 Bft)
- - 15 min 0,000 mm 6,0 UV-I 855 W/m 8,1 C 21,7 C 15,8 km/h
O (3 Bft)
0,00 %
Durchschnitt _ 14,5 C 59 % 1026,5 hPa #0,0 l/m 2,7 km/h (1 Bft) O-SO - #14:45 h #0,000 mm 3,2 UV-I 505 W/m 5,4 C 14,3 C 4,6 km/h (1 Bft) 0,00 %